Back to catalog

STARLINK-30961

AliveCommunicationsVLEO
NORAD 58445·PAYLOAD·🇺🇸 United States

Launched Nov 28, 2023 from Cape Canaveral Space Force Station

Loading…

Next Passes (next 24 hours)

TLE

FreshSource: CelesTrak SupGP

Epoch: Sep 14, 2026, 14:25 UTC

1 58445C 23183J   26257.60118056 -.00031730  00000+0 -11493-2 0  2574
2 58445  43.0033  54.5584 0001555 267.0667 251.0899 15.27591687    18

Track STARLINK-30961 in real time with AllMySat

Download on the App Store